TimeEST,TemperatureF,Dew PointF,Humidity,Sea Level PressureIn,VisibilityMPH,Wind Direction,Wind SpeedMPH,Gust SpeedMPH,PrecipitationIn,Events,Conditions,WindDirDegrees,DateUTC
12:29 AM,35.6,26.6,70,29.69,4.0,WSW,12.7,23.0,0.00,Snow,Light Snow,250,2013-02-12 05:29:00
12:51 AM,33.8,28.4,81,29.69,1.8,WSW,15.0,21.9,0.00,Snow,Light Snow,250,2013-02-12 05:51:00
12:54 AM,34.0,28.0,79,29.70,1.5,WSW,15.0,21.9,0.00,Snow,Light Snow,250,2013-02-12 05:54:00
1:01 AM,33.8,28.4,81,29.69,1.0,WSW,13.8,-,0.00,Snow,Light Snow,250,2013-02-12 06:01:00
1:35 AM,33.8,30.2,87,29.70,1.2,WSW,11.5,-,0.00,Snow,Light Snow,240,2013-02-12 06:35:00
1:48 AM,33.8,30.2,87,29.70,1.5,WSW,12.7,-,0.01,Snow,Light Snow,250,2013-02-12 06:48:00
1:54 AM,33.1,30.0,89,29.71,1.5,WSW,10.4,20.7,0.01,Snow,Light Snow,250,2013-02-12 06:54:00
1:57 AM,33.8,30.2,87,29.70,1.5,WSW,13.8,19.6,0.00,Snow,Light Snow,240,2013-02-12 06:57:00
2:13 AM,33.8,30.2,87,29.70,1.5,WSW,13.8,-,0.00,Snow,Light Snow,240,2013-02-12 07:13:00
2:15 AM,33.8,30.2,87,29.70,2.0,WSW,17.3,-,0.00,Snow,Light Snow,250,2013-02-12 07:15:00
2:25 AM,33.8,28.4,81,29.70,8.0,WSW,12.7,23.0,0.00,,Overcast,240,2013-02-12 07:25:00
2:49 AM,33.8,28.4,81,29.70,2.5,WSW,20.7,27.6,0.00,Snow,Light Snow,250,2013-02-12 07:49:00
2:54 AM,33.1,28.9,85,29.71,3.0,WSW,16.1,27.6,0.00,Snow,Light Snow,240,2013-02-12 07:54:00
3:43 AM,33.8,28.4,81,29.71,2.0,WSW,18.4,-,0.00,Snow,Light Snow,240,2013-02-12 08:43:00
3:54 AM,33.1,28.9,85,29.73,2.5,WSW,17.3,25.3,0.00,Snow,Light Snow,240,2013-02-12 08:54:00
4:01 AM,33.8,28.4,81,29.71,3.0,WSW,18.4,-,0.00,Snow,Light Snow,240,2013-02-12 09:01:00
4:08 AM,33.8,28.4,81,29.72,2.5,WSW,17.3,23.0,0.00,Snow,Light Snow,240,2013-02-12 09:08:00
4:11 AM,33.8,28.4,81,29.72,1.8,WSW,17.3,23.0,0.00,Snow,Light Snow,240,2013-02-12 09:11:00
4:25 AM,33.8,30.2,87,29.72,3.0,WSW,17.3,24.2,0.00,Snow,Light Snow,250,2013-02-12 09:25:00
4:35 AM,33.8,28.4,81,29.72,1.8,WSW,20.7,31.1,0.00,Snow,Light Snow,240,2013-02-12 09:35:00
4:54 AM,33.1,30.0,89,29.74,1.2,WSW,16.1,27.6,0.00,Snow,Light Snow,250,2013-02-12 09:54:00
5:02 AM,33.8,30.2,87,29.73,1.0,WSW,16.1,23.0,0.00,Snow,Light Snow,250,2013-02-12 10:02:00
5:15 AM,33.8,30.2,87,29.73,0.8,WSW,15.0,25.3,0.01,Snow,Light Snow,250,2013-02-12 10:15:00
5:54 AM,32.0,30.0,92,29.76,1.0,WSW,17.3,25.3,0.02,Snow,Light Snow,250,2013-02-12 10:54:00
6:00 AM,32.0,30.2,93,29.74,1.8,WSW,17.3,26.5,0.01,Snow,Light Snow,250,2013-02-12 11:00:00
6:04 AM,33.8,30.2,87,29.74,3.0,WSW,17.3,26.5,0.01,Snow,Light Snow,250,2013-02-12 11:04:00
6:19 AM,33.8,28.4,81,29.75,10.0,WSW,16.1,-,0.01,,Overcast,250,2013-02-12 11:19:00
7:54 AM,34.0,28.0,79,29.81,8.0,West,19.6,32.2,N/A,,Overcast,260,2013-02-12 12:54:00
8:54 AM,34.0,28.0,79,29.84,7.0,West,19.6,29.9,0.00,,Overcast,270,2013-02-12 13:54:00
9:54 AM,34.0,27.0,75,29.86,9.0,West,21.9,31.1,0.00,,Overcast,260,2013-02-12 14:54:00
10:54 AM,34.0,27.0,75,29.88,8.0,West,23.0,32.2,N/A,,Overcast,270,2013-02-12 15:54:00
11:54 AM,34.0,27.0,75,29.89,10.0,West,18.4,23.0,0.00,,Overcast,260,2013-02-12 16:54:00
12:54 PM,35.1,26.1,70,29.89,10.0,West,19.6,28.8,N/A,,Overcast,270,2013-02-12 17:54:00
1:45 PM,33.8,24.8,70,29.88,9.0,West,24.2,33.4,N/A,,Overcast,260,2013-02-12 18:45:00
1:54 PM,34.0,25.0,70,29.90,10.0,West,23.0,33.4,N/A,,Overcast,280,2013-02-12 18:54:00
2:36 PM,33.8,24.8,70,29.87,10.0,West,13.8,-,N/A,,Overcast,270,2013-02-12 19:36:00
2:54 PM,34.0,24.1,67,29.88,10.0,West,15.0,24.2,N/A,,Overcast,260,2013-02-12 19:54:00
3:54 PM,33.1,23.0,66,29.88,9.0,West,12.7,21.9,0.00,,Overcast,270,2013-02-12 20:54:00
4:54 PM,33.1,25.0,72,29.88,7.0,West,15.0,-,0.00,Snow,Light Snow,260,2013-02-12 21:54:00
5:54 PM,32.0,23.0,69,29.91,10.0,WSW,15.0,-,0.00,,Overcast,250,2013-02-12 22:54:00
6:54 PM,32.0,23.0,69,29.93,10.0,WSW,12.7,-,N/A,,Overcast,250,2013-02-12 23:54:00
7:14 PM,32.0,23.0,69,29.93,10.0,SW,13.8,19.6,N/A,,Overcast,230,2013-02-13 00:14:00
7:40 PM,32.0,24.8,75,29.93,10.0,SW,11.5,-,0.00,,Overcast,230,2013-02-13 00:40:00
7:54 PM,32.0,24.1,73,29.95,10.0,SW,11.5,-,0.00,,Overcast,230,2013-02-13 00:54:00
8:54 PM,32.0,24.1,73,29.95,10.0,WSW,12.7,-,0.00,,Overcast,240,2013-02-13 01:54:00
9:54 PM,32.0,23.0,69,29.94,10.0,WSW,10.4,-,0.00,,Overcast,250,2013-02-13 02:54:00
10:54 PM,32.0,23.0,69,29.91,10.0,WSW,11.5,-,N/A,,Overcast,250,2013-02-13 03:54:00
11:54 PM,32.0,23.0,69,29.91,10.0,WSW,10.4,-,N/A,,Overcast,250,2013-02-13 04:54:00